KC0AFB Weather Reports


Display with metric or nautical units.
time (UTC)temp
F
wind
direction
speed
MPH
gust
MPH
rain 1hr
in
rain 24hr
in
rain mn
in
humidity
%
barometer
mb
20260904161720 75 89 8.0 10.0 0.00 0.00 0.00 76 1013.8
20260904161216 75 49 7.0 8.0 0.00 0.00 0.00 77 1013.9
20260904160711 74 64 7.0 7.0 0.00 0.00 0.00 78 1013.9
20260904160206 74 60 9.0 9.0 0.00 0.00 0.00 79 1013.9
20260904155706 73 59 10.0 11.0 0.00 0.00 0.00 80 1013.9
20260904155206 73 85 7.0 8.0 0.00 0.00 0.00 81 1013.9
20260904154704 72 74 11.0 14.0 0.00 0.00 0.00 82 1013.9
20260904154200 72 72 7.0 8.0 0.00 0.00 0.00 83 1014.0
20260904153655 71 93 7.0 8.0 0.00 0.00 0.00 83 1013.9
20260904153150 71 94 6.0 7.0 0.00 0.00 0.00 84 1014.2
20260904152647 70 90 8.0 10.0 0.00 0.00 0.00 85 1014.1
20260904152141 70 97 5.0 6.0 0.00 0.00 0.00 86 1014.1
20260904151636 69 88 9.0 9.0 0.00 0.00 0.00 86 1014.1
20260904151135 69 124 7.0 9.0 0.00 0.00 0.00 86 1014.1
20260904150631 69 81 5.0 8.0 0.00 0.00 0.00 87 1014.1
20260904150126 68 86 5.0 6.0 0.00 0.00 0.00 88 1014.2
20260904145625 68 74 7.0 10.0 0.00 0.00 0.00 88 1014.4
20260904145120 67 98 4.0 7.0 0.00 0.00 0.00 89 1014.0
20260904144616 66 101 7.0 9.0 0.00 0.00 0.00 89 1014.3
20260904144111 66 73 9.0 11.0 0.00 0.00 0.00 89 1014.3
20260904143607 65 65 9.0 10.0 0.00 0.00 0.00 90 1014.1
20260904143103 64 68 8.0 9.0 0.00 0.00 0.00 90 1014.4
20260904142559 64 119 5.0 6.0 0.00 0.00 0.00 91 1014.3
20260904142054 63 91 5.0 6.0 0.00 0.00 0.00 92 1014.4
20260904141549 63 122 5.0 6.0 0.00 0.00 0.00 93 1014.4
20260904141045 63 108 6.0 7.0 0.00 0.00 0.00 93 1014.5
20260904140540 63 104 5.0 6.0 0.00 0.00 0.00 94 1014.3
20260904140034 62 111 5.0 7.0 0.00 0.00 0.00 94 1014.3
20260904135533 62 61 3.0 5.0 0.00 0.00 0.00 95 1014.2
20260904135030 62 59 5.0 6.0 0.00 0.00 0.00 95 1014.3
20260904134525 61 73 3.0 5.0 0.00 0.00 0.00 95 1014.4
20260904134019 61 94 4.0 5.0 0.00 0.00 0.00 95 1014.8
20260904133513 61 70 3.0 5.0 0.00 0.00 0.00 95 1014.5
20260904133010 60 68 4.0 5.0 0.00 0.00 0.00 95 1014.5
20260904132504 60 58 3.0 3.0 0.00 0.00 0.00 96 1014.4
20260904132004 60 55 3.0 3.0 0.00 0.00 0.00 96 1014.6
20260904131458 60 104 1.0 1.0 0.00 0.00 0.00 96 1014.6
20260904130954 60 103 3.0 3.0 0.00 0.00 0.00 96 1014.3
20260904130453 59 70 2.0 3.0 0.00 0.00 0.00 96 1014.3
20260904125948 59 81 2.0 2.0 0.00 0.00 0.00 96 1014.4
20260904125445 58 68 3.0 5.0 0.00 0.00 0.00 96 1014.3
20260904124944 58 68 3.0 3.0 0.00 0.00 0.00 96 1014.3
20260904124440 58 79 3.0 3.0 0.00 0.00 0.00 96 1014.4
20260904123936 57 80 2.0 3.0 0.00 0.00 0.00 95 1014.1
20260904123430 58 52 3.0 3.0 0.00 0.00 0.00 95 1014.1
20260904122926 58 57 3.0 3.0 0.00 0.00 0.00 95 1014.1
20260904122426 58 70 3.0 3.0 0.00 0.00 0.00 95 1014.2
20260904121920 58 55 5.0 6.0 0.00 0.00 0.00 95 1014.1
20260904121417 58 79 3.0 3.0 0.00 0.00 0.00 95 1014.0
20260904120913 58 60 5.0 5.0 0.00 0.00 0.00 95 1013.8
20260904120409 58 61 3.0 3.0 0.00 0.00 0.00 95 1014.2
20260904115903 58 73 5.0 6.0 0.00 0.00 0.00 95 1013.9
20260904115359 58 68 3.0 3.0 0.00 0.00 0.00 95 1013.9
20260904114853 58 56 5.0 6.0 0.00 0.00 0.00 95 1014.2
20260904114348 59 87 5.0 6.0 0.00 0.00 0.00 95 1014.2
20260904113843 59 62 4.0 5.0 0.00 0.00 0.00 95 1014.1
20260904113343 59 68 4.0 5.0 0.00 0.00 0.00 95 1013.9
20260904112837 59 82 5.0 6.0 0.00 0.00 0.00 95 1014.2
20260904112333 59 70 4.0 6.0 0.00 0.00 0.00 95 1014.1
20260904111828 59 86 3.0 6.0 0.00 0.00 0.00 95 1014.0
20260904111324 59 77 3.0 5.0 0.00 0.00 0.00 95 1014.2
20260904110820 59 109 3.0 5.0 0.00 0.00 0.00 95 1014.1
20260904110319 60 91 5.0 6.0 0.00 0.00 0.00 95 1014.2
20260904105814 59 99 4.0 6.0 0.00 0.00 0.00 95 1014.4
20260904105314 59 103 5.0 7.0 0.00 0.00 0.00 95 1014.4
20260904104809 59 108 4.0 5.0 0.00 0.00 0.00 95 1014.2
20260904104304 59 110 6.0 7.0 0.00 0.00 0.00 95 1014.3
20260904103802 59 105 4.0 5.0 0.00 0.00 0.00 94 1014.0
20260904103300 60 94 5.0 6.0 0.00 0.00 0.00 94 1014.3
20260904102756 60 130 6.0 7.0 0.00 0.00 0.00 94 1014.1
20260904102252 60 92 5.0 5.0 0.00 0.00 0.00 94 1013.9
20260904101748 60 95 6.0 7.0 0.00 0.00 0.00 94 1013.9
20260904101244 60 113 5.0 6.0 0.00 0.00 0.00 94 1014.1
20260904100739 60 111 5.0 6.0 0.00 0.00 0.00 94 1013.9
20260904100235 60 90 7.0 8.0 0.00 0.00 0.00 94 1013.8
20260904095735 60 100 6.0 8.0 0.00 0.00 0.00 94 1013.7
20260904095230 60 76 5.0 6.0 0.00 0.00 0.00 94 1013.9
20260904094725 60 89 5.0 6.0 0.00 0.00 0.00 94 1013.7
20260904094225 60 86 8.0 9.0 0.00 0.00 0.00 93 1013.6
20260904093721 61 83 5.0 7.0 0.00 0.00 0.00 93 1013.5
20260904093220 61 75 6.0 8.0 0.00 0.00 0.00 93 1013.2
20260904092716 61 91 6.0 7.0 0.00 0.00 0.00 93 1013.4
20260904092213 61 104 4.0 6.0 0.00 0.00 0.00 93 1013.2
20260904091708 61 78 7.0 8.0 0.00 0.00 0.00 93 1013.0
20260904091203 61 87 6.0 7.0 0.00 0.00 0.00 93 1013.1
20260904090659 61 74 7.0 9.0 0.00 0.00 0.00 93 1013.0
20260904090155 61 55 7.0 8.0 0.00 0.00 0.00 93 1012.9
20260904085650 61 73 8.0 9.0 0.00 0.00 0.00 93 1012.7
20260904085149 61 66 5.0 6.0 0.00 0.00 0.00 93 1012.6
20260904084644 61 90 7.0 7.0 0.00 0.00 0.00 93 1012.4
20260904084141 61 65 5.0 7.0 0.00 0.00 0.00 93 1012.9
20260904083637 61 75 5.0 7.0 0.00 0.00 0.00 93 1012.9
20260904083133 62 82 5.0 7.0 0.00 0.00 0.00 93 1012.6
20260904082627 62 56 5.0 6.0 0.00 0.00 0.00 93 1012.3
20260904082123 62 82 5.0 7.0 0.00 0.00 0.00 93 1012.2
20260904081618 62 49 5.0 8.0 0.00 0.00 0.00 93 1012.4
20260904081113 62 59 4.0 6.0 0.00 0.00 0.00 93 1012.5
20260904080609 62 54 4.0 5.0 0.00 0.00 0.00 93 1012.3
20260904080105 62 54 5.0 7.0 0.00 0.00 0.00 93 1012.6
20260904075556 62 59 3.0 3.0 0.00 0.00 0.00 93 1012.7
20260904075055 62 75 3.0 5.0 0.00 0.00 0.00 93 1012.7
20260904074555 62 62 2.0 2.0 0.00 0.00 0.00 93 1012.9
20260904074050 62 76 3.0 3.0 0.00 0.00 0.00 93 1013.0
20260904073550 62 66 3.0 3.0 0.00 0.00 0.00 93 1012.9
20260904073047 62 48 3.0 5.0 0.00 0.00 0.00 93 1012.9
20260904072542 62 55 3.0 3.0 0.00 0.00 0.00 92 1012.6
20260904072037 62 65 2.0 2.0 0.00 0.00 0.00 92 1012.6
20260904071532 62 82 3.0 3.0 0.00 0.00 0.00 92 1012.7
20260904071027 62 78 5.0 6.0 0.00 0.00 0.00 92 1012.7
20260904070526 62 131 5.0 6.0 0.00 0.00 0.00 92 1012.5
20260904070021 63 124 3.0 3.0 0.00 0.00 0.00 92 1012.5
20260904065516 63 97 3.0 3.0 0.00 0.00 0.00 92 1012.9
20260904065012 63 93 2.0 2.0 0.00 0.00 0.00 92 1012.6
20260904064508 63 104 2.0 2.0 0.00 0.00 0.00 92 1012.5
20260904064003 63 67 2.0 2.0 0.00 0.00 0.00 92 1012.5
20260904063459 63 89 2.0 2.0 0.00 0.00 0.00 92 1012.3
20260904062954 63 65 2.0 2.0 0.00 0.00 0.00 92 1012.3
20260904062450 64 78 3.0 3.0 0.00 0.00 0.00 91 1012.2
20260904061946 64 74 4.0 5.0 0.00 0.00 0.00 91 1012.4
20260904061442 64 78 5.0 6.0 0.00 0.00 0.00 91 1012.3
20260904060938 64 77 3.0 3.0 0.00 0.00 0.00 91 1012.1
20260904060434 64 82 4.0 6.0 0.00 0.00 0.00 91 1011.9
20260904055929 64 59 5.0 6.0 0.00 0.00 0.00 91 1012.3
20260904055424 64 56 5.0 6.0 0.00 0.00 0.00 91 1012.1
20260904054920 64 57 4.0 5.0 0.00 0.00 0.00 91 1012.2
20260904054410 64 75 5.0 6.0 0.00 0.00 0.00 91 1012.3
20260904053906 64 52 3.0 3.0 0.00 0.00 0.00 91 1012.3
20260904053404 64 56 3.0 3.0 0.00 0.00 0.00 91 1012.1
20260904052900 64 57 4.0 5.0 0.00 0.00 0.00 91 1012.3
20260904052356 64 55 3.0 3.0 0.00 0.00 0.00 91 1012.2
20260904051852 65 60 5.0 5.0 0.00 0.00 0.00 90 1012.2
20260904051348 65 57 4.0 5.0 0.00 0.00 0.00 90 1012.1
20260904050842 66 50 3.0 3.0 0.00 0.00 0.00 90 1012.5
20260904050339 66 55 3.0 3.0 0.00 0.00 0.00 89 1012.4
20260904045833 66 58 2.0 3.0 0.00 0.00 0.00 89 1012.1
20260904045328 66 73 3.0 3.0 0.00 0.00 0.00 89 1012.2
20260904044823 66 69 2.0 3.0 0.00 0.00 0.00 88 1012.2
20260904044319 66 73 3.0 5.0 0.00 0.00 0.00 88 1011.9
20260904043815 66 74 3.0 3.0 0.00 0.00 0.00 89 1012.3
20260904043311 66 63 3.0 3.0 0.00 0.00 0.00 89 1012.1
20260904042806 66 70 2.0 2.0 0.00 0.00 0.00 88 1011.9
20260904042306 66 70 2.0 2.0 0.00 0.00 0.00 88 1012.0
20260904041803 66 73 2.0 2.0 0.00 0.00 0.00 88 1012.2
20260904041259 66 66 3.0 3.0 0.00 0.00 0.00 88 1011.9
20260904040754 67 69 2.0 2.0 0.00 0.00 0.00 88 1011.9
20260904040250 67 64 2.0 2.0 0.00 0.00 0.00 87 1011.9
20260904035746 67 58 2.0 2.0 0.00 0.00 0.00 87 1012.0
20260904035241 68 60 2.0 2.0 0.00 0.00 0.00 86 1011.7
20260904034740 68 59 1.0 1.0 0.00 0.00 0.00 85 1011.5
20260904034236 68 37 3.0 3.0 0.00 0.00 0.00 85 1011.6
20260904033731 69 58 2.0 2.0 0.00 0.00 0.00 85 1011.6
20260904033228 69 53 2.0 2.0 0.00 0.00 0.00 85 1011.5
20260904032723 69 52 2.0 2.0 0.00 0.00 0.00 85 1011.3
20260904032222 68 17 2.0 2.0 0.00 0.00 0.00 86 1011.2
20260904031717 68 26 2.0 2.0 0.00 0.00 0.00 86 1011.3
20260904031213 69 30 2.0 2.0 0.00 0.00 0.00 84 1011.2
20260904030708 71 45 1.0 1.0 0.00 0.00 0.00 82 1011.3
20260904030203 70 45 3.0 5.0 0.00 0.00 0.00 83 1011.3
20260904025700 69 45 2.0 2.0 0.00 0.00 0.00 84 1011.2
20260904025154 70 60 3.0 3.0 0.00 0.00 0.00 83 1010.9
20260904024650 71 60 2.0 2.0 0.00 0.00 0.00 82 1010.9
20260904024145 70 46 3.0 3.0 0.00 0.00 0.00 83 1010.8
20260904023641 70 58 2.0 2.0 0.00 0.00 0.00 84 1010.9
20260904023137 70 56 3.0 3.0 0.00 0.00 0.00 83 1010.9
20260904022637 70 46 3.0 3.0 0.00 0.00 0.00 83 1010.8
20260904022134 70 52 2.0 2.0 0.00 0.00 0.00 84 1010.9
20260904021630 70 47 2.0 2.0 0.00 0.00 0.00 83 1010.7
20260904021125 69 35 2.0 2.0 0.00 0.00 0.00 85 1010.9
20260904020620 70 61 2.0 2.0 0.00 0.00 0.00 85 1010.8
20260904020109 70 79 2.0 2.0 0.00 0.00 0.00 84 1010.9
20260904015603 70 52 2.0 2.0 0.00 0.00 0.00 84 1010.8
20260904015102 71 70 2.0 2.0 0.00 0.00 0.00 83 1010.7
20260904014556 71 74 1.0 1.0 0.00 0.00 0.00 82 1010.5
20260904014052 71 60 1.0 1.0 0.00 0.00 0.00 82 1010.4
20260904013548 71 57 1.0 2.0 0.00 0.00 0.00 83 1010.5
20260904013044 71 60 1.0 1.0 0.00 0.00 0.00 83 1010.2
20260904012544 71 57 1.0 1.0 0.00 0.00 0.00 82 1010.2
20260904012038 72 63 2.0 2.0 0.00 0.00 0.00 81 1010.3
20260904011537 72 71 0.0 0.0 0.00 0.00 0.00 82 1010.1
20260904011033 73 72 0.0 0.0 0.00 0.00 0.00 81 1010.2
20260904010529 73 87 0.0 0.0 0.00 0.00 0.00 80 1010.0
20260904010025 74 87 0.0 0.0 0.00 0.00 0.00 79 1010.1
20260904005525 75 86 1.0 1.0 0.00 0.00 0.00 77 1009.9
20260904005021 76 98 0.0 0.0 0.00 0.00 0.00 76 1010.0
20260904004516 76 78 0.0 1.0 0.00 0.00 0.00 76 1009.7
20260904004016 77 103 1.0 1.0 0.00 0.00 0.00 74 1010.0
20260904003513 77 79 0.0 0.0 0.00 0.00 0.00 74 1009.8
20260904003008 78 152 1.0 1.0 0.00 0.00 0.00 71 1009.7
20260904002504 78 80 1.0 1.0 0.00 0.00 0.00 72 1010.0
20260904002003 78 101 0.0 0.0 0.00 0.00 0.00 70 1009.8
20260904001459 78 79 1.0 1.0 0.00 0.00 0.00 71 1009.8
20260904000959 79 115 0.0 0.0 0.00 0.00 0.00 70 1009.8
20260904000458 79 115 0.0 0.0 0.00 0.00 0.00 71 1009.8
20260903235954 80 121 0.0 0.0 0.00 0.00 0.00 68 1010.0
20260903235449 79 120 0.0 1.0 0.00 0.00 0.00 69 1009.9
20260903234943 79 181 1.0 1.0 0.00 0.00 0.00 69 1009.8
20260903234440 78 187 2.0 2.0 0.00 0.00 0.00 70 1009.9
20260903233936 78 141 3.0 3.0 0.00 0.00 0.00 71 1009.9
20260903233431 78 104 2.0 2.0 0.00 0.00 0.00 71 1009.8
20260903232926 78 115 0.0 1.0 0.00 0.00 0.00 70 1009.6
20260903232420 79 132 2.0 2.0 0.00 0.00 0.00 70 1009.6
20260903231915 78 169 3.0 5.0 0.00 0.00 0.00 70 1009.5
20260903231410 78 107 3.0 3.0 0.00 0.00 0.00 71 1009.5
20260903230905 78 150 4.0 5.0 0.00 0.00 0.00 71 1009.6
20260903230400 77 155 3.0 3.0 0.00 0.00 0.00 72 1009.0
20260903225856 78 147 6.0 7.0 0.00 0.00 0.00 73 1009.0
20260903225352 78 102 7.0 8.0 0.00 0.00 0.00 72 1009.0
20260903224847 78 93 3.0 3.0 0.00 0.00 0.00 72 1009.2
20260903224338 78 122 4.0 5.0 0.00 0.00 0.00 72 1008.9
20260903223833 78 61 4.0 5.0 0.00 0.00 0.00 72 1009.2
20260903223332 78 74 3.0 3.0 0.00 0.00 0.00 72 1009.0
20260903222827 77 52 4.0 5.0 0.00 0.00 0.00 73 1008.9
20260903222327 78 68 3.0 5.0 0.00 0.00 0.00 72 1008.9
20260903221821 78 101 4.0 5.0 0.00 0.00 0.00 73 1008.9
20260903221320 77 108 2.0 2.0 0.00 0.00 0.00 73 1008.9
20260903220818 77 107 1.0 1.0 0.00 0.00 0.00 74 1008.8
20260903220312 76 106 3.0 3.0 0.00 0.00 0.00 74 1008.8
20260903215811 77 111 4.0 6.0 0.00 0.00 0.00 75 1008.8
20260903215308 77 39 5.0 6.0 0.00 0.00 0.00 75 1008.7
20260903214805 77 91 2.0 2.0 0.00 0.00 0.00 76 1008.6
20260903214301 77 106 3.0 5.0 0.00 0.00 0.00 76 1008.7
20260903213755 77 78 5.0 7.0 0.00 0.00 0.00 76 1008.8
20260903213251 76 98 4.0 5.0 0.00 0.00 0.00 76 1008.7
20260903212741 77 84 4.0 7.0 0.00 0.00 0.00 76 1008.8
20260903212238 76 104 3.0 5.0 0.00 0.00 0.00 77 1008.7
20260903211736 76 88 4.0 5.0 0.00 0.00 0.00 77 1008.6
20260903211234 75 60 3.0 3.0 0.00 0.00 0.00 78 1008.6
20260903210729 76 31 3.0 5.0 0.00 0.00 0.00 77 1008.7
20260903210225 75 50 4.0 6.0 0.00 0.00 0.00 79 1008.5
20260903205718 75 28 6.0 7.0 0.00 0.00 0.00 79 1008.6
20260903205217 75 62 4.0 6.0 0.00 0.00 0.00 80 1008.7
20260903204713 75 20 4.0 5.0 0.00 0.00 0.00 79 1008.8
20260903204210 74 77 4.0 7.0 0.00 0.00 0.00 79 1008.7
20260903203704 73 80 3.0 5.0 0.00 0.00 0.00 81 1008.7
20260903203200 72 48 6.0 6.0 0.00 0.00 0.00 82 1008.7
20260903202654 72 38 5.0 7.0 0.00 0.00 0.00 82 1009.0
20260903202150 72 58 3.0 5.0 0.00 0.00 0.00 82 1009.3
20260903201643 73 28 3.0 3.0 0.00 0.00 0.00 82 1008.8
20260903201138 72 44 5.0 7.0 0.00 0.00 0.00 83 1008.7
20260903200633 72 27 4.0 6.0 0.00 0.00 0.00 84 1008.7
20260903200129 71 48 4.0 6.0 0.00 0.00 0.00 83 1008.6
20260903195624 71 28 5.0 6.0 0.00 0.00 0.00 84 1008.8
20260903195120 71 46 3.0 5.0 0.00 0.00 0.00 84 1008.5
20260903194614 71 74 2.0 3.0 0.00 0.00 0.00 84 1008.3
20260903194114 71 31 5.0 6.0 0.00 0.00 0.00 84 1008.1
20260903193611 71 48 5.0 8.0 0.00 0.00 0.00 84 1008.3
20260903193106 71 40 3.0 6.0 0.00 0.00 0.00 85 1008.7
20260903192603 71 32 5.0 8.0 0.00 0.00 0.00 85 1008.4
20260903192103 71 30 5.0 6.0 0.00 0.00 0.00 84 1008.7
20260903191559 71 35 2.0 3.0 0.00 0.00 0.00 86 1008.6
20260903191054 70 31 4.0 5.0 0.00 0.00 0.00 86 1008.9
20260903190553 70 27 3.0 3.0 0.00 0.00 0.00 86 1008.9
20260903190053 71 326 4.0 5.0 0.00 0.00 0.00 85 1009.3
20260903185548 71 299 3.0 3.0 0.00 0.00 0.00 85 1009.0
20260903185044 71 31 1.0 2.0 0.00 0.00 0.00 86 1008.8
20260903184540 71 43 3.0 5.0 0.00 0.00 0.00 86 1008.7
20260903184035 71 26 2.0 2.0 0.00 0.00 0.00 86 1008.7
20260903183534 71 35 1.0 1.0 0.00 0.00 0.00 85 1008.7
20260903183029 71 45 2.0 2.0 0.00 0.00 0.00 86 1008.9
20260903182527 70 124 3.0 3.0 0.00 0.00 0.00 86 1008.8
20260903182024 70 42 3.0 3.0 0.00 0.00 0.00 86 1008.4
20260903181517 71 55 5.0 6.0 0.00 0.00 0.00 86 1008.2
20260903181017 70 49 5.0 6.0 0.00 0.00 0.00 87 1008.2
20260903180513 69 60 3.0 3.0 0.00 0.00 0.00 88 1008.3
20260903180007 69 52 3.0 5.0 0.00 0.00 0.00 89 1008.1
20260903175506 68 48 5.0 6.0 0.00 0.00 0.00 89 1008.2
20260903175005 68 74 6.0 7.0 0.00 0.00 0.00 90 1008.2
20260903174500 67 44 4.0 5.0 0.00 0.00 0.00 91 1008.3
20260903174000 66 32 5.0 6.0 0.00 0.00 0.00 92 1008.0
20260903173455 66 39 6.0 8.0 0.00 0.00 0.00 92 1008.1
20260903172950 66 47 8.0 10.0 0.00 0.00 0.00 93 1007.8
20260903172445 66 37 7.0 11.0 0.00 0.00 0.00 93 1007.8
20260903171941 65 47 8.0 10.0 0.00 0.00 0.00 93 1007.5
20260903171431 65 13 5.0 7.0 0.00 0.00 0.00 92 1007.8
20260903170931 66 24 6.0 8.0 0.00 0.00 0.00 91 1007.8
20260903170425 67 12 6.0 7.0 0.00 0.00 0.00 90 1007.8
20260903165924 69 22 4.0 6.0 0.00 0.00 0.00 90 1007.4
20260903165418 68 43 2.0 2.0 0.00 0.00 0.00 90 1007.5
20260903164913 69 356 2.0 2.0 0.00 0.00 0.00 90 1007.5
20260903164408 68 65 2.0 2.0 0.00 0.00 0.00 90 1007.6
20260903163908 69 33 2.0 2.0 0.00 0.00 0.00 89 1007.5
20260903163404 68 22 3.0 3.0 0.00 0.00 0.00 89 1007.5
20260903162900 68 32 2.0 2.0 0.00 0.00 0.00 89 1007.6
20260903162356 69 60 2.0 2.0 0.00 0.00 0.00 89 1007.4